LEMUR-2-YUASA (43561 NORAD) Tracking and Keplerian Element Data

This shows tracking and keplerian element data for the satellite.

Feedback or suggestion? Click here.




ElementValue
Catalog43561
NameLEMUR-2-YUASA
Epoch Orbit1805
Epoch Day318.5339299
Epoch Year2018
RAAN12.8287
Inclination51.6429
Eccentricity0.000881
Argument of Perigee36.1339
Mean Anonmoly324.0234
Mean Motion15.28318131
Decay Rate1.657E-05
L11 43561U 18046H 18318.53392990 .00001657 00000-0 71934-4 0 9996
L22 43561 51.6429 12.8287 0008810 36.1339 324.0234 15.28318131 18053

Live tracking and technical data element details for LEMUR-2-YUASA (NORAD 43561). LEMUR-2-YUASA can be tracked NOW for your location showing map with azimuth and elevation plus other details from your city location.

Track the satellite on the map from your city or location and see movement details for azimuth, elevation, latitude, longitude, range, height, and movement on the map or in text.







IsCatalogInMostPopularTable: catalog: 43561, numindb: 55
Update: records affected: 1



GetName: 43561 LEMUR-2-YUASA

Hit Count: updated at: Fri, 16 Nov 2018 02:54:09 GMT